Regional Weather Roundup
Issued by NWS

Home | Current Version | Previous Version | Text Only | Print | Product List | Glossary Off
Versions: 1 2 3 4 5 6 7 8 9 10 11 12 13 14 15 16 17 18 19 20 21 22 23 24 25 26 27 28 29 30 31 32 33 34 35 36 37 38 39 40 41 42 43 44 45 46 47 48 49 50

000
ASUS43 KMPX 070310
RWRMN
WEATHER ROUNDUP FOR MINNESOTA
NATIONAL WEATHER SERVICE TWIN CITIES/CHANHASSEN MN
900 PM CST SAT FEB 06 2016


NOTE: "FAIR" INDICATES FEW OR NO CLOUDS BELOW 12,000 FEET WITH NO
SIGNIFICANT WEATHER AND/OR OBSTRUCTIONS TO VISIBILITY. N/A MEANS
CURRENT SKY AND/OR WEATHER CONDITIONS ARE NOT AVAILABLE.

MNZ060>063-068>070-070400-
   Twin Cities Metro

CITY           SKY/WX    TMP DP  RH WIND       PRES   REMARKS
TWIN CITIES    LGT RAIN  35  28  75 S10       29.82F WCI  27
ST PAUL        LGT RAIN  34  28  79 S12       29.83F WCI  25
CRYSTAL        LGT RAIN  35  29  78 S12       29.78F WCI  27
BLAINE         CLOUDY    36  30  80 S15       29.78F
LAKEVILLE      MIX PCPN  34  28  80 SW7       29.82S WCI  28
EDEN PRAIRIE   CLOUDY    35  29  78 S14       29.80F WCI  26
SOUTH ST PAUL  LGT RAIN  35  28  78 S7        29.83F WCI  29
LAKE ELMO      MIX PCPN  34  30  86 S14       29.82F WCI  24
$$
MNZ001>005-007-008-013>017-022>024-027-028-070400-
   Northwest Minnesota

CITY           SKY/WX    TMP DP  RH WIND       PRES   REMARKS
BEMIDJI        CLOUDY    36  31  81 SW7       29.55F
HALLOCK        CLOUDY    36  32  87 S12       29.45F
ROSEAU         CLOUDY    36  30  80 S12       29.46F
WARROAD        CLOUDY    34  30  86 S7        29.47F WCI  28
THIEF RVR FALL CLOUDY    37  30  75 SW13      29.53F
CROOKSTON      CLOUDY    36  34  93 SW9       29.54F
FOSSTON        CLOUDY    34  30  86 SW14      29.57R WCI  24
DETROIT LAKES  PTCLDY    36  34  93 SW13      29.62S
MOORHEAD       MOCLDY    37  34  87 SW10      29.63F
PARK RAPIDS    PTCLDY    36  30  79 SW9       29.60F
MAHNOMEN       CLOUDY    34  32  93 SW10      29.59R WCI  26
$$
MNZ006-009>011-018-025>026-070400-
   North Central Minnesota

CITY           SKY/WX    TMP DP  RH WIND       PRES   REMARKS
BAUDETTE       CLOUDY    33  26  75 S7        29.50F WCI  27
FLAG ISLAND    CLOUDY    30  28  93 SE8       29.46F WCI  23
INTL FALLS     CLOUDY    32  28  85 S8        29.55F WCI  25
WASKISH        CLOUDY    37  30  75 S8        29.53F
LONGVILLE      CLOUDY    36  30  80 S6        29.61F
GRAND RAPIDS   CLOUDY    32  27  80 S10       29.62F WCI  24
CRANE LAKE     CLOUDY    30  28  93 S6        29.63F WCI  24
ORR            MIX PCPN  30  27  86 S8        29.58F WCI  23
COOK           LGT SNOW  30  28  93 S7        29.62F WCI  23
WALKER         CLOUDY    35  30  82 SW9       29.58F WCI  28
$$
MNZ012-019>021-037-070400-
   Northeast Minnesota

CITY           SKY/WX    TMP DP  RH WIND       PRES   REMARKS
DULUTH         LGT SNOW  30  27  88 SW12      29.69F FOG     WCI  20
ELY            LGT SNOW  28  28 100 S10       29.64F WCI  19
HIBBING        CLOUDY    30  28  92 SE8       29.63F WCI  22
EVELETH        LGT SNOW  32  32 100 S9        29.65F WCI  24
DULUTH HARBOR  MIX PCPN  34  30  86 SW9       29.73F WCI  26
TWO HARBORS    LGT SNOW  36  28  75 SW13      29.69F
SILVER BAY     LGT SNOW  30  30 100 CALM      29.69F
GRAND MARAIS     N/A     33  31  92 S12       29.75F WCI  24
G MARAIS ARPRT LGT SNOW  27  23  86 SE5       29.69F VSB 3/4 WCI  21
$$
MNZ029>031-032-039>041-046>048-054>057-064-070400-
   West Central Minnesota

CITY           SKY/WX    TMP DP  RH WIND       PRES   REMARKS
FERGUS FALLS   CLOUDY    34  34 100 S10       29.69F WCI  26
WHEATON        CLOUDY    36  34  93 S9        29.70F
MORRIS         CLOUDY    34  30  86 SW9       29.70F WCI  26
ALEXANDRIA     CLOUDY    34  30  85 S13       29.67F WCI  25
ELBOW LAKE     MOCLDY    33  32  96 S8        29.68F FOG     WCI  26
WADENA         DRIZZLE   36  32  87 SW9       29.63F
GLENWOOD       DRIZZLE   34  30  86 S8        29.70F WCI  27
APPLETON       CLOUDY    37  30  75 S8        29.72F
BENSON         PTCLDY    36  30  80 S9        29.71F
ORTONVILLE     CLOUDY    37  30  75 SW6       29.73F
MADISON        CLOUDY    37  30  75 SW8       29.74F
WILLMAR        FAIR      36  30  80 SW13      29.78F
$$
MNZ033>034-036-042>043-049>051-058-059-070400-
   Central Minnesota

CITY           SKY/WX    TMP DP  RH WIND       PRES   REMARKS
ST CLOUD       CLOUDY    33  30  88 S7        29.76S WCI  27
SAUK CENTRE    MOCLDY    33  30  88 SW9       29.71F WCI  26
PAYNESVILLE    CLOUDY    35  29  81 SW10      29.76F WCI  27
AITKIN         MIX PCPN  37  28  70 S9        29.66F
PINE RIVER     CLOUDY    36  30  80 SW8       29.67F
BRAINERD       CLOUDY    34  31  88 S13       29.67F WCI  25
STAPLES        CLOUDY    36  32  87 SW8       29.64F
LONG PRAIRIE   CLOUDY    34  32  93 S12       29.70F WCI  25
LITTLE FALLS   CLOUDY    34  32  93 S6        29.71F WCI  29
LITCHFIELD     CLOUDY    36  32  87 SW6       29.78S
BUFFALO        CLOUDY    34  30  85 S7        29.80S WCI  28
MAPLE LAKE     CLOUDY    35  32  88 SW6       29.80R WCI  30
$$
MNZ037-044-045-052-053-070400-
   East Central Minnesota

CITY           SKY/WX    TMP DP  RH WIND       PRES   REMARKS
PRINCETON      LGT RAIN  36  30  80 S8        29.78R
MORA           FLURRIES  34  30  86 SW14      29.76S WCI  24
CAMBRIDGE      MIX PCPN  36  27  69 SW5       29.77R
RUSH CITY      CLOUDY    34  29  82 SW7G16    29.78R WCI  28
MOOSE LAKE     LGT SNOW  32  28  86 SW13      29.70R WCI  22
HINCKLEY       FLURRIES  34  30  86 SW12G20   29.76S WCI  25
CLOQUET        LGT SNOW  32  27  80 S12       29.69F WCI  23
MCGREGOR       CLOUDY    34  30  86 S12G18    29.67F WCI  25
$$
MNZ071>073-080-081-089-090-097-098-070400-
   Southwest Minnesota

CITY           SKY/WX    TMP DP  RH WIND       PRES   REMARKS
MONTEVIDEO     CLOUDY    34  30  86 SW9       29.74F WCI  26
GRANITE FALLS  CLOUDY    36  31  83 S8        29.79F
CANBY          CLOUDY    40  32  73 SW12      29.75F
MARSHALL       CLOUDY    36  28  73 SW24      29.78F
REDWOOD FALLS  CLOUDY    35  28  75 SW9       29.80S WCI  28
OLIVIA         CLOUDY    34  30  86 SW9       29.79F WCI  26
PIPESTONE        N/A     30  21  69 SW7       29.82S WCI  23
WINDOM         CLOUDY    32  27  80 SW12      29.82F WCI  23
WORTHINGTON    CLOUDY    30  25  80 SW18      29.84R WCI  18
JACKSON        CLOUDY    32  27  80 SW15      29.84F WCI  22
TRACY          CLOUDY    35  29  78 SW18G24   29.80F WCI  24
SLAYTON        CLOUDY    32  29  88 SW18G24   29.82R WCI  20
$$
MNZ065>067-074>077-082>085-091>093-070400-
   South Central Minnesota

CITY           SKY/WX    TMP DP  RH WIND       PRES   REMARKS
MANKATO        CLOUDY    34  27  75 S10       29.84F WCI  26
NEW ULM        CLOUDY    34  28  80 SW13      29.82F WCI  25
ST JAMES       CLOUDY    36  28  75 S12       29.82F
FAIRMONT       CLOUDY    30  25  80 S9        29.84F WCI  22
GLENCOE        CLOUDY    36  32  87 SW8G18    29.81R
FARIBAULT      RAIN      34  28  80 S12G21    29.85F WCI  25
OWATONNA       CLOUDY    34  27  75 S22       29.87F WCI  22
WASECA         CLOUDY    32  28  86 S16       29.87F WCI  21
ALBERT LEA     CLOUDY    34  28  80 S12G18    29.88F WCI  25
$$
MNZ078>079-086>088-094>096-070400-
   Southeast Minnesota

CITY           SKY/WX    TMP DP  RH WIND       PRES   REMARKS
ROCHESTER      CLOUDY    30  27  88 S22       29.88F WCI  17
RED WING       CLOUDY    34  27  75 SW6       29.87F WCI  29
STANTON        DRIZZLE   35  28  77 S16G24    29.82F WCI  25
DODGE CENTER   CLOUDY    28  27  93 SW21      29.87F WCI  15
WINONA         CLOUDY    32  28  86 S5        29.93F WCI  27
AUSTIN         CLOUDY    30  28  93 S13       29.89F WCI  20
PRESTON        CLOUDY    28  26  90 S18       29.91F FOG     WCI  15
$$
ABBREVIATIONS USED IN REMARKS
   TC - TEMPERATURES IN CELSIUS
  WCI - WIND CHILL INDEX
   HX - HEAT INDEX
  VSB - VISIBILITY
$$




USA.gov is the U.S. government's official web portal to all federal, state and local government web resources and services.